When you browse on this site, cookies collect data to enhance your experience and personalize the content and advertising you see.
Visit our Privacy Policy to learn more. By continuing to use the site, you agree to this use of cookies and data.
  • In Deutschland
  • Länderverzeichnis
  • Für 7 Tage
  • Wassertemperatur
  • Satellitenkarten
  • Wetterkarte
  • Widgets
  • user-avatar
    Anmelden

    Stündliche Wetter Sydney

    Heute, 17 Juni, Montag

    Zeit Temperatur Niederschläge Wind Luftdruck Luftfeuchtigkeit
    00:00 +11°C° 0.4 mm 4 m/S 763 mmHg 89%
    01:00 +10°C° 0.4 mm 5 m/S 763 mmHg 88%
    02:00 +10°C° 0.8 mm 5 m/S 763 mmHg 89%
    03:00 +10°C° 0.8 mm 6 m/S 763 mmHg 90%
    04:00 +10°C° 0 mm 5 m/S 762 mmHg 86%
    05:00 +10°C° 0.4 mm 5 m/S 763 mmHg 86%
    06:00 +10°C° 0.4 mm 5 m/S 763 mmHg 86%
    07:00 +10°C° 0.4 mm 5 m/S 763 mmHg 86%
    08:00 +12°C° 0.9 mm 5 m/S 763 mmHg 85%
    09:00 +13°C° 0.9 mm 6 m/S 763 mmHg 83%
    10:00 +14°C° 0.9 mm 6 m/S 763 mmHg 81%
    11:00 +14°C° 1 mm 6 m/S 763 mmHg 81%
    12:00 +14°C° 1 mm 6 m/S 763 mmHg 81%
    13:00 +15°C° 1 mm 6 m/S 763 mmHg 82%
    14:00 +15°C° 0.4 mm 6 m/S 763 mmHg 80%
    15:00 +15°C° 0.4 mm 6 m/S 763 mmHg 79%
    16:00 +15°C° 0.4 mm 6 m/S 763 mmHg 77%
    17:00 +14°C° 0.2 mm 5 m/S 763 mmHg 81%
    18:00 +13°C° 0.2 mm 4 m/S 764 mmHg 85%
    19:00 +12°C° 0.2 mm 4 m/S 764 mmHg 89%
    20:00 +12°C° 0.1 mm 4 m/S 764 mmHg 89%
    21:00 +12°C° 0.1 mm 4 m/S 764 mmHg 89%
    22:00 +11°C° 0.1 mm 3 m/S 764 mmHg 89%
    23:00 +12°C° 0.3 mm 3 m/S 764 mmHg 88%

    Morgen, 18 Juni, Dienstag

    Zeit Temperatur Niederschläge Wind Luftdruck Luftfeuchtigkeit
    00:00 +12°C° 0.3 mm 3 m/S 764 mmHg 87%
    01:00 +12°C° 0.3 mm 3 m/S 764 mmHg 85%
    02:00 +12°C° 0.1 mm 3 m/S 763 mmHg 85%
    03:00 +12°C° 0.1 mm 3 m/S 763 mmHg 84%
    04:00 +12°C° 0.1 mm 3 m/S 763 mmHg 83%
    05:00 +11°C° 0 mm 3 m/S 763 mmHg 84%
    06:00 +11°C° 0 mm 3 m/S 763 mmHg 85%
    07:00 +11°C° 0 mm 3 m/S 763 mmHg 85%
    08:00 +12°C° 0 mm 3 m/S 763 mmHg 79%
    09:00 +14°C° 0 mm 3 m/S 763 mmHg 73%
    10:00 +16°C° 0 mm 3 m/S 763 mmHg 67%
    11:00 +17°C° 0 mm 2 m/S 763 mmHg 62%
    12:00 +19°C° 0 mm 2 m/S 762 mmHg 57%
    13:00 +21°C° 0 mm 1 m/S 761 mmHg 52%
    14:00 +21°C° 0 mm 1 m/S 761 mmHg 54%
    15:00 +20°C° 0 mm 1 m/S 761 mmHg 56%
    16:00 +18°C° 0 mm 0 m/S 761 mmHg 57%
    17:00 +18°C° 0.1 mm 2 m/S 762 mmHg 58%
    18:00 +17°C° 0.1 mm 3 m/S 762 mmHg 58%
    19:00 +14°C° 0.1 mm 4 m/S 763 mmHg 59%
    20:00 +14°C° 0 mm 5 m/S 763 mmHg 60%
    21:00 +13°C° 0 mm 5 m/S 763 mmHg 61%
    22:00 +11°C° 0 mm 6 m/S 763 mmHg 62%
    23:00 +10°C° 0 mm 5 m/S 763 mmHg 65%

    übermorgen, 19 Juni, Mittwoch

    Zeit Temperatur Niederschläge Wind Luftdruck Luftfeuchtigkeit
    00:00 +10°C° 0 mm 5 m/S 763 mmHg 68%
    01:00 +9°C° 0 mm 5 m/S 764 mmHg 71%
    02:00 +8°C° 0 mm 5 m/S 764 mmHg 72%
    03:00 +8°C° 0 mm 5 m/S 764 mmHg 74%
    04:00 +8°C° 0 mm 5 m/S 764 mmHg 75%
    05:00 +8°C° 0.1 mm 5 m/S 764 mmHg 75%
    06:00 +8°C° 0.1 mm 5 m/S 765 mmHg 75%
    07:00 +8°C° 0.1 mm 5 m/S 765 mmHg 76%
    08:00 +9°C° 0.1 mm 6 m/S 766 mmHg 70%
    09:00 +11°C° 0.1 mm 6 m/S 766 mmHg 64%
    10:00 +13°C° 0.1 mm 6 m/S 766 mmHg 58%
    11:00 +14°C° 0 mm 6 m/S 766 mmHg 54%
    12:00 +14°C° 0 mm 6 m/S 765 mmHg 51%
    13:00 +15°C° 0 mm 6 m/S 765 mmHg 48%
    14:00 +15°C° 0 mm 6 m/S 765 mmHg 49%
    15:00 +14°C° 0 mm 6 m/S 765 mmHg 50%
    16:00 +14°C° 0 mm 6 m/S 765 mmHg 51%
    17:00 +13°C° 0 mm 6 m/S 766 mmHg 54%
    18:00 +12°C° 0 mm 5 m/S 766 mmHg 58%
    19:00 +10°C° 0 mm 5 m/S 767 mmHg 62%
    20:00 +10°C° 0 mm 4 m/S 767 mmHg 64%
    21:00 +10°C° 0 mm 4 m/S 767 mmHg 67%
    22:00 +8°C° 0 mm 4 m/S 767 mmHg 69%
    23:00 +9°C° 0 mm 3 m/S 767 mmHg 70%

    20 Juni, Donnerstag

    Zeit Temperatur Niederschläge Wind Luftdruck Luftfeuchtigkeit
    00:00 +8°C° 0 mm 3 m/S 767 mmHg 70%
    01:00 +8°C° 0 mm 3 m/S 767 mmHg 71%
    02:00 +8°C° 0.1 mm 3 m/S 767 mmHg 72%
    03:00 +8°C° 0.1 mm 3 m/S 767 mmHg 73%
    04:00 +7°C° 0.1 mm 3 m/S 767 mmHg 74%
    05:00 +6°C° 0.2 mm 4 m/S 767 mmHg 75%
    06:00 +6°C° 0.2 mm 4 m/S 767 mmHg 77%
    07:00 +6°C° 0.2 mm 4 m/S 767 mmHg 79%
    08:00 +8°C° 0.1 mm 4 m/S 767 mmHg 73%
    09:00 +11°C° 0.1 mm 4 m/S 767 mmHg 66%
    10:00 +13°C° 0.1 mm 4 m/S 767 mmHg 60%
    11:00 +14°C° 0 mm 3 m/S 766 mmHg 56%
    12:00 +16°C° 0 mm 3 m/S 766 mmHg 53%
    13:00 +17°C° 0 mm 3 m/S 765 mmHg 50%
    14:00 +17°C° 0 mm 3 m/S 765 mmHg 53%
    15:00 +16°C° 0 mm 2 m/S 764 mmHg 56%
    16:00 +16°C° 0 mm 2 m/S 764 mmHg 60%
    17:00 +14°C° 0.1 mm 2 m/S 765 mmHg 66%
    18:00 +13°C° 0.1 mm 2 m/S 765 mmHg 72%
    19:00 +12°C° 0.1 mm 2 m/S 765 mmHg 79%
    20:00 +11°C° 0.2 mm 3 m/S 765 mmHg 75%
    21:00 +11°C° 0.2 mm 4 m/S 765 mmHg 71%
    22:00 +10°C° 0.2 mm 4 m/S 765 mmHg 68%
    23:00 +9°C° 0.1 mm 5 m/S 765 mmHg 67%

    21 Juni, Freitag

    Zeit Temperatur Niederschläge Wind Luftdruck Luftfeuchtigkeit
    00:00 +9°C° 0.1 mm 5 m/S 765 mmHg 66%
    01:00 +9°C° 0.1 mm 6 m/S 765 mmHg 65%
    02:00 +8°C° 0.1 mm 6 m/S 765 mmHg 65%
    03:00 +8°C° 0.1 mm 6 m/S 765 mmHg 64%
    04:00 +7°C° 0.1 mm 6 m/S 765 mmHg 64%
    05:00 +7°C° 0.3 mm 6 m/S 765 mmHg 65%
    06:00 +5°C° 0.3 mm 6 m/S 766 mmHg 67%
    07:00 +5°C° 0.3 mm 6 m/S 766 mmHg 68%
    08:00 +7°C° 0.3 mm 6 m/S 766 mmHg 62%
    09:00 +8°C° 0.3 mm 7 m/S 766 mmHg 57%
    10:00 +9°C° 0.3 mm 7 m/S 766 mmHg 52%
    11:00 +10°C° 0.2 mm 7 m/S 766 mmHg 49%
    12:00 +12°C° 0.2 mm 7 m/S 766 mmHg 46%
    13:00 +14°C° 0.2 mm 7 m/S 765 mmHg 43%
    14:00 +12°C° 0.2 mm 8 m/S 766 mmHg 44%
    15:00 +12°C° 0.2 mm 8 m/S 766 mmHg 46%
    16:00 +12°C° 0.2 mm 8 m/S 766 mmHg 48%
    17:00 +11°C° 0.1 mm 8 m/S 767 mmHg 50%
    18:00 +10°C° 0.1 mm 8 m/S 768 mmHg 52%
    19:00 +9°C° 0.1 mm 8 m/S 768 mmHg 54%
    20:00 +9°C° 0.1 mm 8 m/S 768 mmHg 56%
    21:00 +7°C° 0.1 mm 8 m/S 769 mmHg 57%
    22:00 +7°C° 0.1 mm 8 m/S 769 mmHg 59%
    23:00 +6°C° 0.1 mm 8 m/S 769 mmHg 60%

    22 Juni, Samstag

    Zeit Temperatur Niederschläge Wind Luftdruck Luftfeuchtigkeit
    00:00 +6°C° 0.1 mm 8 m/S 769 mmHg 60%
    01:00 +6°C° 0.1 mm 8 m/S 769 mmHg 61%
    02:00 +5°C° 0.1 mm 8 m/S 769 mmHg 63%
    03:00 +5°C° 0.1 mm 8 m/S 769 mmHg 64%
    04:00 +5°C° 0.1 mm 8 m/S 768 mmHg 66%
    05:00 +5°C° 0.1 mm 7 m/S 769 mmHg 68%
    06:00 +5°C° 0.1 mm 7 m/S 769 mmHg 69%
    07:00 +5°C° 0.1 mm 7 m/S 770 mmHg 70%
    08:00 +6°C° 0.1 mm 7 m/S 770 mmHg 68%
    09:00 +9°C° 0.1 mm 7 m/S 770 mmHg 66%
    10:00 +10°C° 0.1 mm 7 m/S 770 mmHg 64%
    11:00 +11°C° 0.3 mm 7 m/S 770 mmHg 61%
    12:00 +12°C° 0.3 mm 7 m/S 769 mmHg 58%
    13:00 +13°C° 0.3 mm 8 m/S 769 mmHg 55%
    14:00 +13°C° 0.5 mm 8 m/S 769 mmHg 55%
    15:00 +12°C° 0.5 mm 8 m/S 769 mmHg 55%
    16:00 +12°C° 0.5 mm 8 m/S 769 mmHg 55%
    17:00 +11°C° 1.2 mm 8 m/S 769 mmHg 60%
    18:00 +11°C° 1.2 mm 8 m/S 770 mmHg 65%
    19:00 +10°C° 1.2 mm 8 m/S 770 mmHg 71%
    20:00 +10°C° 0.8 mm 7 m/S 770 mmHg 72%
    21:00 +10°C° 0.8 mm 6 m/S 770 mmHg 73%
    22:00 +10°C° 0.8 mm 6 m/S 770 mmHg 74%
    23:00 +10°C° 1 mm 5 m/S 770 mmHg 77%
    Mehr zeigen